FW0405 Everett WA US current weather conditions

sailwx.info

Wind from 032

Air temperature 5.0° C
Dewpoint 3.0° C

Last reported at 2019-Nov-14 10:55 UTC.
Time now 2019-Nov-14 11:19 UTC

Location: N 48°00' W 122°12'.
View on Google Maps.

See reports from other nearby stations

  
Tides and Currents Weather Stations Pressure Air Temp Water Temp Dewpoint Dewpoint Depression Visibility Wind Speed Wind Dir Waves Ship Positions
date/time (UTC)wind fromknots sea level pressurealtimeterstation pressurevisibilityair tempwater tempwave heightnotes
2019-Nov-14 10:55 032 5.0
2019-Nov-14 10:50 049 5.0
2019-Nov-14 10:45 151 5.0
2019-Nov-14 10:40 028 5.0
2019-Nov-14 10:35 088 5.0
2019-Nov-14 10:30 093 5.0
2019-Nov-14 10:25 035 1 gusting 2 5.0
2019-Nov-14 10:20 035 2 gusting 4 5.6
2019-Nov-14 10:15 045 1 gusting 4 5.6
2019-Nov-14 10:10 058 2 gusting 4 5.6
2019-Nov-14 10:05 022 2 gusting 5 5.6
2019-Nov-14 10:00 046 2 gusting 4 5.6
2019-Nov-14 09:55 033 2 gusting 4 5.6
2019-Nov-14 09:50 022 2 gusting 5 5.6
2019-Nov-14 09:45 036 1 gusting 4 5.6
2019-Nov-14 09:40 045 1 gusting 2 5.6
2019-Nov-14 09:35 022 5.6
2019-Nov-14 09:30 022 5.6
2019-Nov-14 09:25 022 5.6
2019-Nov-14 09:20 068 5.6
2019-Nov-14 09:15 068 5.6
2019-Nov-14 09:10 088 5.6
2019-Nov-14 09:05 112 5.6
2019-Nov-14 09:00 112 5.6
2019-Nov-14 08:55 121 5.6
2019-Nov-14 08:50 158 5.6
2019-Nov-14 08:45 112 5.6
2019-Nov-14 08:40 108 5.6
2019-Nov-14 08:35 033 5.6
2019-Nov-14 08:30 012 5.6
2019-Nov-14 08:25 033 5.6
2019-Nov-14 08:20 135 5.6
2019-Nov-14 08:15 135 5.6
2019-Nov-14 08:10 022 5.6
2019-Nov-14 08:05 035 5.6
2019-Nov-14 08:00 068 5.6
2019-Nov-14 07:55 035 5.6
2019-Nov-14 07:50 6.1
2019-Nov-14 07:45 6.1
2019-Nov-14 07:40 6.1
2019-Nov-14 07:35 6.1
2019-Nov-14 07:30 6.1
2019-Nov-14 07:25 180 6.7
2019-Nov-14 07:20 180 6.7
2019-Nov-14 07:15 081 6.7
2019-Nov-14 07:10 041 7.2
2019-Nov-14 07:05 022 7.2
2019-Nov-14 07:00 022 7.2
2019-Nov-14 06:55 7.2
2019-Nov-14 06:50 7.8
2019-Nov-14 06:45 7.8
2019-Nov-14 06:40 7.8
2019-Nov-14 06:35 022 7.8
2019-Nov-14 06:30 7.8
2019-Nov-14 06:25 022 7.8
2019-Nov-14 06:20 124 7.8
2019-Nov-14 06:15 026 7.8
2019-Nov-14 06:10 012 7.8
2019-Nov-14 06:05 022 7.8
2019-Nov-14 06:00 014 7.8
2019-Nov-14 05:55 7.8
2019-Nov-14 05:50 7.8
2019-Nov-14 05:45 7.8
2019-Nov-14 05:40 022 7.2
2019-Nov-14 05:35 022 7.2
2019-Nov-14 05:30 078 7.2
2019-Nov-14 05:25 022 7.2
2019-Nov-14 05:20 022 7.2
2019-Nov-14 05:15 022 7.8
2019-Nov-14 05:10 022 7.2
2019-Nov-14 05:05 071 7.2
2019-Nov-14 05:00 079 7.2
2019-Nov-14 04:55 045 7.8
2019-Nov-14 04:50 045 7.8
2019-Nov-14 04:45 045 8.3
2019-Nov-14 04:40 180 8.3
2019-Nov-14 04:35 180 8.3
2019-Nov-14 04:30 057 8.3
2019-Nov-14 04:25 045 8.3
2019-Nov-14 04:20 022 8.3
2019-Nov-14 04:15 022 8.3
2019-Nov-14 04:10 180 8.3
2019-Nov-14 04:05 191 8.3
2019-Nov-14 04:00 202 8.3
2019-Nov-14 03:55 180 8.3
2019-Nov-14 03:50 180 8.3
2019-Nov-14 03:45 180 8.3
2019-Nov-14 03:40 180 8.3
2019-Nov-14 03:35 217 8.3
2019-Nov-14 03:30 292 8.3
2019-Nov-14 03:25 278 1 gusting 2 8.3
2019-Nov-14 03:20 233 8.3
2019-Nov-14 03:15 258 7.8
2019-Nov-14 03:10 214 7.8
2019-Nov-14 03:05 213 7.8
2019-Nov-14 03:00 180 7.8
2019-Nov-14 02:55 192 7.8
2019-Nov-14 02:50 180 7.8
2019-Nov-14 02:45 225 7.2
2019-Nov-14 02:40 225 7.8
2019-Nov-14 02:35 225 7.8
2019-Nov-14 02:30 202 7.8
2019-Nov-14 02:25 180 8.3
2019-Nov-14 02:20 180 8.3
2019-Nov-14 02:15 180 8.3
2019-Nov-14 02:10 180 8.3
2019-Nov-14 02:05 202 8.3
2019-Nov-14 02:00 225 8.9
2019-Nov-14 01:55 270 8.9
2019-Nov-14 01:50 292 0 gusting 0 8.9
2019-Nov-14 01:45 262 9.4
2019-Nov-14 01:40 270 1 gusting 1 9.4
2019-Nov-14 01:35 270 1 gusting 2 9.4
2019-Nov-14 01:30 280 1 gusting 1 9.4
2019-Nov-14 01:25 270 1 gusting 2 9.4
2019-Nov-14 01:20 259 1 gusting 2 9.4
2019-Nov-14 01:15 270 2 gusting 4 10.0
2019-Nov-14 01:10 292 1 gusting 2 10.0
2019-Nov-14 01:05 270 1 gusting 2 10.0
2019-Nov-14 01:00 257 2 gusting 2 10.0
2019-Nov-14 00:55 231 1 gusting 2 10.0
2019-Nov-14 00:50 283 1 gusting 1 10.0
2019-Nov-14 00:45 291 1 gusting 2 10.0
2019-Nov-14 00:40 270 1 gusting 4 10.6
2019-Nov-14 00:35 282 2 gusting 4 10.6
2019-Nov-14 00:30 270 1 gusting 2 10.6
2019-Nov-14 00:25 292 2 gusting 4 11.1
2019-Nov-14 00:20 283 2 gusting 5 11.1
2019-Nov-14 00:15 270 1 gusting 5 11.7
2019-Nov-14 00:10 248 2 gusting 4 11.7
2019-Nov-14 00:05 292 3 gusting 5 11.7
2019-Nov-14 00:00 275 2 gusting 5 11.7
2019-Nov-13 23:55 305 2 gusting 5 12.2
2019-Nov-13 23:50 270 2 gusting 4 12.2
2019-Nov-13 23:45 290 2 gusting 4 12.2
2019-Nov-13 23:40 262 2 gusting 4 11.7
2019-Nov-13 23:35 270 1 gusting 2 11.7
2019-Nov-13 23:30 261 2 gusting 4 11.7
2019-Nov-13 23:25 294 1 gusting 2 11.1
2019-Nov-13 23:20 255 2 gusting 4 11.1
2019-Nov-13 23:15 270 3 gusting 4 11.1
2019-Nov-13 23:10 270 2 gusting 5 11.1
2019-Nov-13 23:05 275 3 gusting 6 11.1
2019-Nov-13 23:00 256 4 gusting 5 11.7
2019-Nov-13 22:55 272 3 gusting 5 11.7
2019-Nov-13 22:50 260 2 gusting 5 11.7
2019-Nov-13 22:45 292 2 gusting 5 11.7
2019-Nov-13 22:40 257 2 gusting 4 11.7
2019-Nov-13 22:35 270 3 gusting 6 11.7
2019-Nov-13 22:30 292 2 gusting 5 11.7
2019-Nov-13 22:25 244 2 gusting 5 11.7
2019-Nov-13 22:20 243 4 gusting 5 11.7
2019-Nov-13 22:15 270 3 gusting 5 11.1
2019-Nov-13 22:10 255 2 gusting 5 11.1
2019-Nov-13 22:05 313 3 gusting 5 11.1
2019-Nov-13 22:00 338 2 gusting 6 11.1
2019-Nov-13 21:55 254 2 gusting 5 10.6
2019-Nov-13 21:50 268 3 gusting 6 11.1
2019-Nov-13 21:45 266 5 gusting 6 11.1
2019-Nov-13 21:40 286 2 gusting 5 11.1
2019-Nov-13 21:35 261 4 gusting 6 11.1
2019-Nov-13 21:30 273 4 gusting 6 11.7
2019-Nov-13 21:25 305 3 gusting 5 11.7
2019-Nov-13 21:20 320 4 gusting 6 11.7
2019-Nov-13 21:15 299 3 gusting 5 11.7
2019-Nov-13 21:10 248 2 gusting 4 11.1
2019-Nov-13 21:05 308 3 gusting 5 11.1
2019-Nov-13 21:00 257 2 gusting 5 11.1
2019-Nov-13 20:55 267 3 gusting 5 11.1
2019-Nov-13 20:50 277 2 gusting 4 11.1
2019-Nov-13 20:45 278 2 gusting 4 11.1
2019-Nov-13 20:40 294 2 gusting 5 11.1
2019-Nov-13 20:35 231 2 gusting 4 11.1
2019-Nov-13 20:30 314 1 gusting 2 10.6
2019-Nov-13 20:25 10.6
2019-Nov-13 20:20 353 1 gusting 4 10.6
2019-Nov-13 20:15 10.0
2019-Nov-13 20:10 301 4 gusting 5 10.6
2019-Nov-13 20:05 10.6
2019-Nov-13 20:00 270 3 gusting 5 10.6
2019-Nov-13 19:55 253 2 gusting 4 10.0
2019-Nov-13 19:50 346 1 gusting 4 10.0
2019-Nov-13 19:45 045 2 gusting 4 10.0
2019-Nov-13 19:40 297 2 gusting 4 10.0
2019-Nov-13 19:35 283 4 gusting 5 10.0
2019-Nov-13 19:30 300 2 gusting 4 9.4
2019-Nov-13 19:25 308 3 gusting 5 10.0
2019-Nov-13 19:20 354 1 gusting 2 10.0
2019-Nov-13 19:15 355 4 gusting 5 10.0
2019-Nov-13 19:10 315 4 gusting 5 10.0
2019-Nov-13 19:05 315 2 gusting 5 10.0
2019-Nov-13 19:00 315 4 gusting 6 10.0
2019-Nov-13 18:55 328 3 gusting 5 10.0
2019-Nov-13 18:50 328 4 gusting 6 10.0
2019-Nov-13 18:45 022 5 gusting 6 9.4
2019-Nov-13 18:40 033 4 gusting 5 10.0
2019-Nov-13 18:35 042 4 gusting 5 10.0
2019-Nov-13 18:30 031 4 gusting 5 10.0
2019-Nov-13 18:25 049 4 gusting 5 9.4
2019-Nov-13 18:20 022 3 gusting 5 9.4
2019-Nov-13 18:15 072 2 gusting 4 9.4
2019-Nov-13 18:10 346 3 gusting 5 9.4
2019-Nov-13 18:05 316 2 gusting 5 10.0
2019-Nov-13 18:00 305 3 gusting 5 9.4
2019-Nov-13 17:55 287 2 gusting 5 9.4
2019-Nov-13 17:50 291 2 gusting 5 9.4
2019-Nov-13 17:45 282 2 gusting 4 9.4
2019-Nov-13 17:40 303 2 gusting 5 9.4
2019-Nov-13 17:35 270 2 gusting 5 9.4
2019-Nov-13 17:30 308 2 gusting 4 9.4
2019-Nov-13 17:25 268 2 gusting 4 8.9
2019-Nov-13 17:20 286 2 gusting 4 8.9
2019-Nov-13 17:15 332 2 gusting 2 8.9
2019-Nov-13 17:10 261 1 gusting 4 8.9
2019-Nov-13 17:05 212 2 gusting 2 8.9
2019-Nov-13 17:00 291 4 gusting 5 8.3
2019-Nov-13 16:55 257 2 gusting 5 8.3
2019-Nov-13 16:50 251 7.8
2019-Nov-13 16:45 214 7.8
2019-Nov-13 16:40 223 7.8
2019-Nov-13 16:35 356 7.2
2019-Nov-13 16:30 357 7.2
2019-Nov-13 16:25 342 7.2
2019-Nov-13 16:20 7.2
2019-Nov-13 16:15 7.2
2019-Nov-13 16:10 7.2
2019-Nov-13 16:05 7.2
2019-Nov-13 16:00 7.2
2019-Nov-13 15:55 7.8
2019-Nov-13 15:50 7.8
2019-Nov-13 15:45 332 7.8
2019-Nov-13 15:40 292 7.8
2019-Nov-13 15:35 290 7.8
2019-Nov-13 15:30 292 7.2
2019-Nov-13 15:25 341 7.2
2019-Nov-13 15:20 338 7.2
2019-Nov-13 15:15 270 7.2
2019-Nov-13 15:10 274 6.7
2019-Nov-13 15:05 224 7.2
2019-Nov-13 15:00 338 7.2
2019-Nov-13 14:55 285 7.2
2019-Nov-13 14:50 273 7.2
2019-Nov-13 14:45 258 7.2
2019-Nov-13 14:40 7.8
2019-Nov-13 14:35 7.8
2019-Nov-13 14:30 309 7.8
2019-Nov-13 14:25 342 7.8
2019-Nov-13 14:20 7.2
2019-Nov-13 14:15 7.2
2019-Nov-13 14:10 343 7.2
2019-Nov-13 14:05 332 7.8
2019-Nov-13 14:00 7.8
2019-Nov-13 13:55 7.8
2019-Nov-13 13:50 249 7.8
2019-Nov-13 13:45 236 7.8
2019-Nov-13 13:40 266 7.8
2019-Nov-13 13:35 252 7.8
2019-Nov-13 13:30 180 7.8
2019-Nov-13 13:25 180 7.8
2019-Nov-13 13:20 068 7.8
2019-Nov-13 13:15 071 7.8
2019-Nov-13 13:10 068 8.3
2019-Nov-13 13:05 047 8.3
2019-Nov-13 13:00 055 8.3
2019-Nov-13 12:55 068 8.3
2019-Nov-13 12:50 062 8.3
2019-Nov-13 12:45 059 1 gusting 2 8.3
2019-Nov-13 12:40 058 1 gusting 1 8.3
2019-Nov-13 12:35 045 8.9
2019-Nov-13 12:30 046 8.9
2019-Nov-13 12:25 045 1 gusting 2 8.9
2019-Nov-13 12:20 057 1 gusting 2 8.9
2019-Nov-13 12:15 055 1 gusting 2 8.9
2019-Nov-13 12:10 045 0 gusting 1 8.9
2019-Nov-13 12:05 045 8.3
2019-Nov-13 12:00 057 8.3
2019-Nov-13 11:55 045 8.3
2019-Nov-13 11:50 068 8.3
2019-Nov-13 11:45 068 8.3
2019-Nov-13 11:40 045 8.9
2019-Nov-13 11:35 090 8.9
2019-Nov-13 11:30 180 8.9
2019-Nov-13 11:25 169 8.9
2019-Nov-13 11:20 113 8.9
2019-Nov-13 11:15 078 8.9
2019-Nov-13 11:10 127 8.9
2019-Nov-13 11:05 112 8.9
2019-Nov-13 11:00 110 8.9
2019-Nov-13 10:55 120 8.9
2019-Nov-13 10:50 112 8.9
2019-Nov-13 10:45 045 8.9
2019-Nov-13 10:40 112 8.9
2019-Nov-13 10:35 158 8.9
2019-Nov-13 10:30 045 8.9
2019-Nov-13 10:25 158 8.9
2019-Nov-13 10:20 158 8.9
2019-Nov-13 10:15 135 8.9
2019-Nov-13 10:10 166 8.9
2019-Nov-13 10:05 180 8.9
2019-Nov-13 10:00 174 8.9
2019-Nov-13 09:55 080 8.9
2019-Nov-13 09:50 022 8.9
2019-Nov-13 09:45 036 8.9
2019-Nov-13 09:40 081 8.9
2019-Nov-13 09:35 112 8.9
2019-Nov-13 09:30 032 8.9
2019-Nov-13 09:25 039 8.9
2019-Nov-13 09:20 047 1 gusting 2 8.9
2019-Nov-13 09:15 042 0 gusting 1 8.9
2019-Nov-13 09:10 082 0 gusting 1 8.9
2019-Nov-13 09:05 060 8.9
2019-Nov-13 09:00 090 8.9
2019-Nov-13 08:55 090 8.9
2019-Nov-13 08:50 135 8.9
2019-Nov-13 08:45 022 8.9
2019-Nov-13 08:40 022 8.9
2019-Nov-13 08:35 022 8.9
2019-Nov-13 08:30 022 8.9
2019-Nov-13 08:25 022 8.9
2019-Nov-13 08:20 022 8.9
2019-Nov-13 08:15 022 8.9
2019-Nov-13 08:10 022 8.9
2019-Nov-13 08:05 043 8.9
2019-Nov-13 08:00 158 8.9
2019-Nov-13 07:55 168 1 gusting 2 8.9
2019-Nov-13 07:50 180 8.9
2019-Nov-13 07:45 180 8.3
2019-Nov-13 07:40 180 8.3
2019-Nov-13 07:35 180 8.3
2019-Nov-13 07:30 180 8.3
2019-Nov-13 07:25 180 8.9
2019-Nov-13 07:20 180 8.9
2019-Nov-13 07:15 180 8.9
2019-Nov-13 07:10 168 8.9
2019-Nov-13 07:05 180 8.9
2019-Nov-13 07:00 180 8.9
2019-Nov-13 06:55 166 8.9
2019-Nov-13 06:50 159 8.9
2019-Nov-13 06:45 138 8.9
2019-Nov-13 06:40 132 1 gusting 1 8.9
2019-Nov-13 06:35 126 0 gusting 1 9.4
2019-Nov-13 06:30 130 0 gusting 1 9.4
2019-Nov-13 06:25 112 9.4
2019-Nov-13 06:20 167 9.4
2019-Nov-13 06:15 180 9.4
2019-Nov-13 06:10 151 9.4
2019-Nov-13 06:05 163 9.4
2019-Nov-13 06:00 180 9.4
2019-Nov-13 05:55 180 9.4
2019-Nov-13 05:50 131 9.4
2019-Nov-13 05:45 180 9.4
2019-Nov-13 05:40 135 9.4
2019-Nov-13 05:35 127 9.4
2019-Nov-13 05:30 179 9.4
2019-Nov-13 05:25 159 9.4
2019-Nov-13 05:20 180 9.4
2019-Nov-13 05:15 176 9.4
2019-Nov-13 05:10 112 1 gusting 2 9.4
2019-Nov-13 05:05 112 9.4
2019-Nov-13 05:00 090 9.4
2019-Nov-13 04:55 112 9.4
2019-Nov-13 04:50 158 9.4
2019-Nov-13 04:45 180 9.4
2019-Nov-13 04:40 112 9.4
2019-Nov-13 04:35 112 9.4
2019-Nov-13 04:30 090 9.4
2019-Nov-13 04:25 113 9.4
2019-Nov-13 04:20 112 9.4
2019-Nov-13 04:15 114 0 gusting 1 9.4
2019-Nov-13 04:10 156 0 gusting 2 10.0
2019-Nov-13 04:05 180 10.0
2019-Nov-13 04:00 188 10.0
2019-Nov-13 03:55 202 10.0
2019-Nov-13 03:50 180 10.0
2019-Nov-13 03:45 202 10.0
2019-Nov-13 03:40 180 2 gusting 2 10.0
2019-Nov-13 03:35 090 1 gusting 2 10.0
2019-Nov-13 03:30 158 2 gusting 5 10.0
2019-Nov-13 03:25 158 2 gusting 5 10.0
2019-Nov-13 03:20 112 1 gusting 1 9.4
2019-Nov-13 03:15 090 9.4
2019-Nov-13 03:10 179 9.4
2019-Nov-13 03:05 115 9.4
2019-Nov-13 03:00 178 9.4
2019-Nov-13 02:55 135 9.4
2019-Nov-13 02:50 180 9.4
2019-Nov-13 02:45 180 9.4
2019-Nov-13 02:40 158 9.4
2019-Nov-13 02:35 045 9.4
2019-Nov-13 02:30 045 9.4
2019-Nov-13 02:25 045 9.4
2019-Nov-13 02:20 097 10.0
2019-Nov-13 02:15 062 10.0
2019-Nov-13 02:10 112 10.0
2019-Nov-13 02:05 084 10.0
2019-Nov-13 02:00 068 10.0
2019-Nov-13 01:55 090 10.0
2019-Nov-13 01:50 135 10.0
2019-Nov-13 01:45 073 10.0
2019-Nov-13 01:40 090 10.0
2019-Nov-13 01:35 135 10.0
2019-Nov-13 01:30 068 10.0
2019-Nov-13 01:25 104 1 gusting 1 10.0
2019-Nov-13 01:20 090 10.0
2019-Nov-13 01:15 090 10.0
2019-Nov-13 01:10 090 10.0
2019-Nov-13 01:05 090 10.0
2019-Nov-13 01:00 090 10.0
2019-Nov-13 00:55 112 10.0
2019-Nov-13 00:50 104 0 gusting 1 10.0
2019-Nov-13 00:45 112 10.0
2019-Nov-13 00:40 090 10.0
2019-Nov-13 00:35 090 10.0
2019-Nov-13 00:30 104 10.0
2019-Nov-13 00:25 090 10.6
2019-Nov-13 00:20 083 10.6
2019-Nov-13 00:15 075 10.6
2019-Nov-13 00:10 117 0 gusting 1 10.6
2019-Nov-13 00:05 112 10.6
2019-Nov-13 00:00 116 10.6
2019-Nov-12 23:55 173 1 gusting 2 10.6
2019-Nov-12 23:50 140 0 gusting 1 10.6
2019-Nov-12 23:45 10.6
2019-Nov-12 23:40 10.6
2019-Nov-12 23:35 10.6
2019-Nov-12 23:30 173 1 gusting 1 10.6
2019-Nov-12 23:25 164 0 gusting 2 10.6
2019-Nov-12 23:20 112 2 gusting 2 10.6
2019-Nov-12 23:15 180 1 gusting 2 10.6
2019-Nov-12 23:10 154 10.6
2019-Nov-12 23:05 134 1 gusting 2 10.6
2019-Nov-12 23:00 167 1 gusting 2 10.6
2019-Nov-12 22:55 177 1 gusting 2 10.6
2019-Nov-12 22:50 180 1 gusting 4 10.6
2019-Nov-12 22:45 177 3 gusting 4 10.6
2019-Nov-12 22:40 171 1 gusting 4 10.6
2019-Nov-12 22:35 180 2 gusting 4 10.6
2019-Nov-12 22:30 122 1 gusting 2 10.6
2019-Nov-12 22:25 180 1 gusting 4 10.6
2019-Nov-12 22:20 154 2 gusting 2 10.6
2019-Nov-12 22:15 171 2 gusting 5 10.6
2019-Nov-12 22:10 180 2 gusting 4 10.6
2019-Nov-12 22:05 114 2 gusting 5 11.1
2019-Nov-12 22:00 161 1 gusting 5 10.6
2019-Nov-12 21:55 158 2 gusting 4 10.6
2019-Nov-12 21:50 114 2 gusting 5 10.6
2019-Nov-12 21:45 120 2 gusting 4 10.6
2019-Nov-12 21:40 143 1 gusting 4 10.6
2019-Nov-12 21:35 145 3 gusting 5 10.6
2019-Nov-12 21:30 093 1 gusting 4 10.6
2019-Nov-12 21:25 178 1 gusting 4 10.6
2019-Nov-12 21:20 136 2 gusting 4 10.6
2019-Nov-12 21:15 335 2 gusting 2 10.6
2019-Nov-12 21:10 174 1 gusting 5 10.6
2019-Nov-12 21:05 145 2 gusting 5 10.6
2019-Nov-12 21:00 140 2 gusting 4 10.6
2019-Nov-12 20:55 119 2 gusting 4 10.6
2019-Nov-12 20:50 156 2 gusting 4 10.6
2019-Nov-12 20:45 169 1 gusting 4 10.0
2019-Nov-12 20:40 158 1 gusting 4 10.6
2019-Nov-12 20:35 122 2 gusting 4 10.0
2019-Nov-12 20:30 090 2 gusting 2 10.0
2019-Nov-12 20:25 139 2 gusting 4 10.0
2019-Nov-12 20:20 166 1 gusting 4 10.0
2019-Nov-12 20:15 156 3 gusting 4 10.0
2019-Nov-12 20:10 091 1 gusting 2 10.0
2019-Nov-12 20:05 136 1 gusting 2 10.0
2019-Nov-12 20:00 115 2 gusting 4 9.4
2019-Nov-12 19:55 136 1 gusting 4 9.4
2019-Nov-12 19:50 141 3 gusting 4 9.4
2019-Nov-12 19:45 127 0 gusting 2 9.4
2019-Nov-12 19:40 135 1 gusting 2 9.4
2019-Nov-12 19:35 148 2 gusting 2 9.4
2019-Nov-12 19:30 148 2 gusting 2 9.4
2019-Nov-12 19:25 180 1 gusting 4 9.4
2019-Nov-12 19:20 180 2 gusting 4 8.9
2019-Nov-12 19:15 124 4 gusting 5 8.9
2019-Nov-12 19:10 180 2 gusting 4 8.9
2019-Nov-12 19:05 180 3 gusting 5 8.9
2019-Nov-12 19:00 174 4 gusting 5 8.9
2019-Nov-12 18:55 180 1 gusting 4 8.9
2019-Nov-12 18:50 170 3 gusting 5 8.9
2019-Nov-12 18:45 135 3 gusting 5 8.9
2019-Nov-12 18:40 152 4 gusting 6 8.9
2019-Nov-12 18:35 115 3 gusting 4 8.9
2019-Nov-12 18:30 156 2 gusting 5 8.9
2019-Nov-12 18:25 140 3 gusting 5 8.9
2019-Nov-12 18:20 141 4 gusting 5 8.3
2019-Nov-12 18:15 102 3 gusting 5 8.3
2019-Nov-12 18:10 099 2 gusting 4 8.3
2019-Nov-12 18:05 144 2 gusting 4 8.3
2019-Nov-12 18:00 098 2 gusting 5 8.3
2019-Nov-12 17:55 171 4 gusting 6 8.3
2019-Nov-12 17:50 108 2 gusting 6 8.3
2019-Nov-12 17:45 140 2 gusting 2 8.3
2019-Nov-12 17:40 154 2 gusting 5 8.3
2019-Nov-12 17:35 157 4 gusting 5 7.8
2019-Nov-12 17:30 197 2 gusting 4 7.8
2019-Nov-12 17:25 128 2 gusting 4 7.8
2019-Nov-12 17:20 140 2 gusting 4 7.8
2019-Nov-12 17:15 129 2 gusting 4 7.8
2019-Nov-12 17:10 170 2 gusting 4 7.8
2019-Nov-12 17:05 146 2 gusting 4 7.8
2019-Nov-12 17:00 126 2 gusting 4 7.8
2019-Nov-12 16:55 158 2 gusting 4 7.8
2019-Nov-12 16:50 100 0 gusting 5 7.8
2019-Nov-12 16:45 128 0 gusting 5 7.8
2019-Nov-12 16:40 111 2 gusting 2 7.2
2019-Nov-12 16:35 125 1 gusting 2 7.2
2019-Nov-12 16:30 122 7.2
2019-Nov-12 16:25 136 7.2
2019-Nov-12 16:20 171 7.2
2019-Nov-12 16:15 168 7.2
2019-Nov-12 16:10 164 7.2
2019-Nov-12 16:05 117 7.2
2019-Nov-12 16:00 180 7.2
2019-Nov-12 15:55 180 7.2
2019-Nov-12 15:50 180 7.2
2019-Nov-12 15:45 180 0 gusting 1 7.2
2019-Nov-12 15:40 180 7.2
2019-Nov-12 15:35 180 7.2
2019-Nov-12 15:30 180 7.2
2019-Nov-12 15:25 180 7.2
2019-Nov-12 15:20 180 7.2
2019-Nov-12 15:15 7.2
2019-Nov-12 15:10 7.2
2019-Nov-12 15:05 7.2
2019-Nov-12 15:00 318 1 gusting 2 7.2
2019-Nov-12 14:55 329 0 gusting 1 7.2
2019-Nov-12 14:50 325 1 gusting 1 7.2
2019-Nov-12 14:45 285 0 gusting 2 7.2
2019-Nov-12 14:15 7.2
2019-Nov-12 14:00 021 0 gusting 2 7.2
2019-Nov-12 13:55 022 2 gusting 4 7.2
2019-Nov-12 13:50 006 1 gusting 4 7.2
2019-Nov-12 13:45 022 2 gusting 5 7.8
2019-Nov-12 13:40 080 1 gusting 2 7.8
2019-Nov-12 13:35 049 1 gusting 2 7.8
2019-Nov-12 13:30 034 0 gusting 2 7.8
2019-Nov-12 13:25 163 7.8
2019-Nov-12 13:20 315 7.8
2019-Nov-12 13:15 7.8
2019-Nov-12 13:10 7.8
2019-Nov-12 13:05 286 7.8
2019-Nov-12 13:00 299 7.8
2019-Nov-12 12:55 263 7.8
2019-Nov-12 12:50 286 7.8
2019-Nov-12 12:45 282 7.8
2019-Nov-12 12:40 317 1 gusting 1 7.8
2019-Nov-12 12:35 321 8.3
2019-Nov-12 12:30 311 1 gusting 1 8.3
2019-Nov-12 12:25 8.3
2019-Nov-12 12:20 324 1 gusting 2 8.3
2019-Nov-12 12:15 292 1 gusting 2 8.3
2019-Nov-12 12:10 248 2 gusting 5 8.3
2019-Nov-12 12:05 180 8.3
2019-Nov-12 12:00 180 8.3
2019-Nov-12 11:55 172 8.3
2019-Nov-12 11:50 163 8.3
2019-Nov-12 11:45 180 8.3
2019-Nov-12 11:40 180 8.3
2019-Nov-12 11:35 155 8.3
2019-Nov-12 11:30 180 8.3
2019-Nov-12 11:25 180 8.3
2019-Nov-12 11:20 180 8.3
2019-Nov-12 11:15 180 8.3
2019-Nov-12 11:10 180 8.3
2019-Nov-12 11:05 180 8.3
2019-Nov-12 11:00 180 8.3